Find Starlink 38026

NORAD ID: 100408 Int'l Des: 2026-192 Owner: SPXS Country: US Constellation: starlink operational

現在のビュー

3D地球を読み込み中...

About Starlink 38026

Starlink 38026 (NORAD 100408) is a starlink constellation satellite launched Aug 21, 2026 by SPXS of US. with a mass of 575.00 kg.

次回通過

Passes for default location (London). Set your location on the main map for personalized predictions.

高度履歴

Loading altitude history...

軌道要素

1 A0408U 26192E 26262.96244880 -.00233484 00000-0 -47992-2 0 9990
2 A0408 53.1588 308.0643 0005527 47.0510 313.0961 15.46247677 5832
Epoch: Sep 19, 2026 • Age: 18 hours

現在のステータス

高度 448.8 km
遠地点 / 近地点 N/A
速度 7.64 km/s
衛星直下点 -51.30°S, 24.39°W
打ち上げ日 Aug 21, 2026
運用期間 30 days
タイプ internet

技術仕様

分類 Payload
質量 575.00 kg
乾燥質量 530.00 kg
長さ 0.30 m
スパン 29.00 m
形状 ? Box + pan
製造者 SPXS
バスタイプ Starlink V2MO
フェーズステータス In Orbit
所有者/国 SPXS/US

Most Searched